Meath Environmental Platform

Observations

Time Sensor AQI SAQ Temp °C Hum % Pres Pa CO μg/m³ H₂S μg/m³ NO μg/m³ NO₂ μg/m³ O₃ μg/m³ SO₂ μg/m³ CO₂e PPM VOC PPM PM1 μg/m³ PM2.5 μg/m³ PM4 μg/m³ PM10 μg/m³ TPS µm
Wednesday 12 August 2026
16:48 Trim Patrick St 3 37.2 30 69,744 0 0 0.02 12.71 105.38 25.64 4.57 11.69 12.86
16:47 Trim Market St 3 37.8 28 66,898 0 7.87 0.08 14.49 81.72 3.19 2.14 7.22 8.4
16:47 Trim Patrick St 3 37.2 31 69,744 0 1.12 0.02 12.85 86.08 24.77 4.57 10.82 11.9
16:46 Trim Market St 3 37.9 28 66,912 0 11.41 0.1 13.53 86.95 3.47 2.14 5.58 6.14
16:46 Trim Patrick St 3 37.2 30 69,746 0 9.7 0.03 14.73 82.76 24.82 3.71 10.06 11.07
16:45 Trim Market St 3 37.9 28 66,928 0 15.64 0.1 18.53 82.66 3.08 1.43 5.04 5.77
16:45 Trim Patrick St 3 37.2 30 69,746 0 3.23 0.03 12.84 120.81 26.14 3.71 10.06 11.06
16:44 Trim Market St 3 38 28 66,947 0 14.27 0.09 27.41 69.29 1.98 2.85 6.13 7.52
16:44 Trim Patrick St 3 37.3 31 69,746 0 18.4 0.01 13.18 86.77 26.56 3.71 9.24 10.16
16:43 Trim Market St 3 38.1 28 66,975 0 15.51 0.08 20.02 82.86 2.9 0.71 5.59 6.15
16:43 Trim Patrick St 3 37.3 30 69,750 0 14.02 0.01 21.37 115.19 25.61 3.71 10.06 11.07
16:42 Trim Market St 3 38.2 28 66,984 0 18.21 0 26.17 69.58 2.38 2.14 5.6 5.77
16:42 Trim Patrick St 3 37.3 30 69,752 0 5.3 0.01 12.88 102.67 26.18 3.71 10.88 11.96
16:41 Trim Patrick St 3 37.3 30 69,754 0 14.61 0.01 17.67 92.45 25.4 3.71 10.87 11.96
16:40 Trim Patrick St 3 37.4 30 69,758 0 4.42 0 12.89 105.78 25.97 4.57 10.07 11.08
16:39 Trim Patrick St 3 37.4 30 69,760 0 12.71 0 14.11 109.45 25.84 3.71 10.06 11.07
16:38 Trim Patrick St 3 37.5 31 69,762 0 21.52 0 23.1 87.97 24.76 4.57 11.65 12.82
16:37 Trim Patrick St 3 37.5 31 69,764 0 27.45 0 43.12 83.12 24.45 5.43 11.65 12.82
16:36 Trim Patrick St 3 37.6 30 69,774 0 12.25 0 14.41 99.86 25.58 5.43 10.88 11.97
16:35 Trim Patrick St 3 37.6 30 69,754 0 7.13 0 12.98 126.73 25.46 4.57 10.88 11.97